This is the latest recevied weather packets stored in our database for station/object DG7FDL-13. If no packets are shown the sender has not sent any weather packets the latest 10 day(s).
| Time | Temp. | Humidity | Pressure | Rain* | Wind** | Luminosity | Snow |
|---|---|---|---|---|---|---|---|
| 1778210551 | 8.33° C | 93% | 1018.6 hPa | 0 mm | - | - | - |
| 1778209878 | 8.33° C | 92% | 1018.5 hPa | 0 mm | - | - | - |
| 1778204887 | 8.33° C | 96% | 1018.6 hPa | 0 mm | - | - | - |
| 1778204310 | 8.33° C | 96% | 1018.5 hPa | 0 mm | - | - | - |
| 1778203639 | 8.33° C | 97% | 1018.5 hPa | 0 mm | - | - | - |
| 1778202554 | 8.89° C | 97% | 1018.5 hPa | 0 mm | - | - | - |
| 1778200327 | 8.33° C | 98% | 1018.6 hPa | 0 mm | - | - | - |
| 1778196630 | 8.33° C | 97% | 1018.6 hPa | 0 mm | - | - | - |
| 1778195490 | 8.33° C | 98% | 1018.6 hPa | 0 mm | - | - | - |
| 1778194759 | 8.33° C | 98% | 1018.6 hPa | 0 mm | - | - | - |
| 1778193646 | 8.33° C | 99% | 1018.5 hPa | 0 mm | - | - | - |
| 1778190966 | 8.33° C | 98% | 1018.6 hPa | 0 mm | - | - | - |
| 1778190431 | 8.33° C | 97% | 1018.5 hPa | 0 mm | - | - | - |
| 1778189766 | 8.33° C | 96% | 1018.5 hPa | 0 mm | - | - | - |
| 1778187128 | 8.33° C | 94% | 1018.4 hPa | 0 mm | - | - | - |
| 1778186502 | 8.33° C | 94% | 1018.3 hPa | 0 mm | - | - | - |
| 1778183959 | 9.44° C | 91% | 1018.1 hPa | 0 mm | - | - | - |
| 1778181031 | 9.44° C | 90% | 1017.5 hPa | 0 mm | - | - | - |
| 1778179727 | 9.44° C | 91% | 1017.3 hPa | 0 mm | - | - | - |
| 1778178006 | 9.44° C | 91% | 1017.2 hPa | 0 mm | - | - | - |
| 1778175750 | 10° C | 90% | 1016.9 hPa | 0 mm | - | - | - |
| 1778173323 | 10° C | 89% | 1016.6 hPa | 0 mm | - | - | - |
| 1778172718 | 10.56° C | 87% | 1016.6 hPa | 0 mm | - | - | - |
| 1778172026 | 10.56° C | 87% | 1016.6 hPa | 0 mm | - | - | - |
| 1778164799 | 10.56° C | 90% | 1016 hPa | 0 mm | - | - | - |
* Rain latest hour (hover to see other rain measurements)
** Current wind speed in m/s (hover to see current wind gust speed)